Wind_Speed
7 8 11 14 15 23 26 28 30 27 27 26 28 24 24 21 18 22 18 21 23 19
10 9 6 7 9 11 12 14 16 18 24 29 26 26 27 24 21 16 13 13 16 20
9 7 4 6 4 6 8 11 11 14 14 16 16 19 18 16 14 15 9 3 6 10
7 7 5 5 3 2 6 5 7 9 11 11 13 11 14 16 13 18 12 13 10 7
4 6 6 6 4 5 7 5 6 8 9 11 13 17 20 20 20 24 20 16 19 16
3 4 8 6 8 7 9 9 9 10 12 14 15 16 17 20 21 22 23 21 21 21
7 7 9 9 9 9 8 11 11 11 12 13 13 14 14 14 15 14 14 12 10 7
5 6 7 9 9 10 10 10 11 12 11 11 14 15 15 14 15 17 17 17 16 13
5 3 5 6 8 11 11 11 12 12 12 11 9 13 14 16 16 14 12 14 15 13
2 5 7 7 8 11 13 12 13 14 12 13 11 15 15 15 14 14 13 14 12 13
6 6 7 9 8 8 10 10 13 12 13 14 14 13 11 11 9 10 9 9 9 11
12 10 10 10 10 8 3 5 6 8 8 13 15 15 14 14 11 9 9 10 11 9
17 14 7 11 14 14 13 11 7 5 7 10 12 11 10 11 8 7 6 6 7 11
4 10 9 8 13 15 17 14 14 13 12 11 11 11 14 15 12 9 9 11 13 16
Wind_Direction
345 311 295 282 245 224 226 220 216 212 212 210 211 209 211 216 219 225 239 245 249 257
1 353 335 280 262 244 226 212 213 214 219 215 214 213 211 206 208 216 234 233 243 254
12 9 353 323 298 243 229 217 210 205 204 203 192 202 191 185 180 173 153 106 186 235
23 25 12 9 357 275 218 234 210 205 205 202 188 178 172 155 138 133 128 144 109 83
52 54 59 66 77 96 116 128 148 165 142 134 138 146 149 144 138 126 109 108 106 99
99 113 96 97 95 107 111 110 115 124 113 120 122 125 127 125 123 120 119 111 99 91
121 127 130 128 138 131 128 128 122 134 134 123 129 130 126 122 117 120 121 124 122 114
141 148 153 154 147 146 141 140 135 133 138 142 132 133 134 125 121 120 123 124 124 130
91 140 184 176 174 170 164 168 161 156 152 151 148 165 152 139 138 143 155 151 152 158
229 221 210 193 208 203 200 185 179 170 164 165 158 160 164 168 166 168 178 159 164 159
207 188 203 196 190 186 212 194 175 177 174 169 165 169 173 157 162 165 161 156 163 182
201 195 194 191 190 177 128 90 143 137 157 162 154 170 165 166 166 168 183 198 203 199
199 193 179 204 201 200 232 247 237 191 176 184 166 163 173 197 213 198 207 214 235 229
174 185 173 171 195 202 201 188 188 184 198 191 184 188 193 208 224 229 219 222 222 225
Height
784 786 786 787 783 783 786 788 791 789 792 793 798 802 805 809 810 813 815 817 819 820
788 787 786 786 785 785 785 786 789 789 790 788 793 795 800 802 804 807 811 812 816 819
792 791 790 789 787 788 789 789 790 792 794 798 787 796 797 801 801 799 806 808 810 816
794 793 792 792 791 790 790 792 792 796 796 794 793 789 794 800 805 796 805 805 805 813
795 795 795 794 795 794 795 794 795 797 796 796 797 798 799 802 804 801 805 810 808 813
797 797 797 797 798 799 799 799 799 799 798 801 802 804 807 806 809 804 806 811 813 811
799 799 800 800 800 800 802 802 801 801 803 804 805 808 811 812 810 810 812 816 815 816
801 802 802 802 803 802 803 804 804 805 806 808 809 810 812 812 814 816 819 820 820 823
801 802 803 804 805 804 803 805 806 807 808 810 810 812 814 815 818 821 825 823 823 827
802 802 802 803 805 803 804 804 805 806 807 808 810 812 814 816 819 822 825 823 826 829
803 803 803 803 804 801 802 803 803 805 806 808 810 813 815 817 820 822 824 825 828 829
801 801 802 803 803 803 803 804 804 804 807 808 811 814 817 818 821 824 826 827 829 829
797 800 801 801 802 803 805 805 805 807 809 811 812 814 817 820 821 823 824 825 826 829
797 799 799 800 801 803 804 805 806 808 809 811 812 814 817 819 820 820 822 823 823 825